Donatas Kazlauskas

Olheiro-Chefe - Zalgiris
13 Jan 2028
Quinta-feira
Processo

Personalidade

Adaptabilidade (18) Ambição (2) Controvérsia (3) Lealdade (15) Pressão (18) Profissionalismo (9) Espírito Esportivo (20) Temperamento (4)

Perfil

Estilo de Treinamento Democrático
Licença Continental Pro
Determinação 10
Gestão de Pessoas 9
Motivação 8
Disciplina 9
Satisfação no Trabalho
100%
Fadiga
0%
Função Olheiro-Chefe
Salário 56.8K p/s
Contrato 14.03.2029

Desempenho

Comportamento Bom
Eficácia do Treinamento
29%
Desenvolvimento do Jogador
35%
Prevenção de Lesões
30%
Implementação Tática
35%

Eventos Recentes

Participou de uma reunião de recrutamento agora
Recomendou um alvo de transferência agora
Participou de uma reunião de recrutamento 7d atrás
Recomendou um alvo de transferência 7d atrás
Recomendou um alvo de transferência 7d atrás
Participou de uma reunião de recrutamento 7d atrás
Apresentou um dossiê à direção 7d atrás
Apresentou um dossiê à direção 14d atrás

Monitorando agora

243
Jogador Clube Status Habilidade Confiança Observado Última observação Último voto
Agustín Módica Gimnasia y Esgrima Ativo 127 / 127 40% 3 31.12.2027 -
Roberto Ramírez Godoy Cruz Ativo 112 / 124 40% 2 31.12.2027 -
Iván Arboleda Sarmiento Ativo 136 / 119 40% 2 31.12.2027 -
Cristopher Varela Deportivo La Guaira Ativo 108 / 128 40% 3 30.12.2027 -
Luis Ingolotti Atlético Tucumán Ativo 110 / 136 40% 2 30.12.2027 -
Nahuel Galardi Maipú Ativo 114 / 124 40% 3 29.12.2027 -
Egil Selvik Watford Ativo 117 / 132 40% 1 29.12.2027 -
Daniil Frolkin Fakel Ativo 102 / 110 40% 1 27.12.2027 -
Alexandr Maximenko Rubin Ativo 127 / 136 40% 2 26.12.2027 -
Myles Roberts Doncaster Rovers Ativo 96 / 98 40% 1 26.12.2027 -
Max O'Leary West Bromwich Albion Ativo 138 / 125 40% 2 25.12.2027 -
Agustín Lastra Estudiantes Ativo 103 / 123 40% 1 25.12.2027 -
Enzo Vázquez Central Norte Ativo 113 / 115 40% 2 24.12.2027 -
Vadim Uljanov Akhmat Grozny Ativo 116 / 118 40% 1 24.12.2027 -
Balázs Tóth Blackburn Rovers Ativo 131 / 122 40% 1 22.12.2027 -
Joe Whitworth Stockport County Ativo 135 / 128 40% 1 22.12.2027 -
Joaquín Enrico San Telmo Ativo 102 / 113 40% 1 21.12.2027 -
Nahuel Suárez La Luz Ativo 130 / 120 40% 1 19.12.2027 -
Darko Todorović Fakel Ativo 111 / 111 40% 4 17.12.2027 Observar
Martín Garay Tigre Ativo 113 / 126 40% 1 17.12.2027 -
Yury Gorshkov Krylya Sovetov Ativo 115 / 122 40% 1 16.12.2027 -
Fernando Costanza Krylya Sovetov Ativo 131 / 117 40% 1 16.12.2027 -
Facundo Castet Colón Ativo 119 / 114 40% 2 15.12.2027 -
Jacob Chapman Huddersfield Town Ativo 119 / 131 40% 2 15.12.2027 -
Anderson Arroyo Rubin Ativo 112 / 115 40% 2 15.12.2027 -
Emmanuel Gómez Riga Alvarado Ativo 101 / 130 40% 1 15.12.2027 -
Johan Campaña Patriotas Ativo 94 / 118 40% 1 15.12.2027 -
François Kamano Sochi Ativo 119 / 114 40% 7 14.12.2027 -
Facundo Altamira Godoy Cruz Ativo 126 / 112 40% 1 14.12.2027 -
Nicolás Heiz Maipú Ativo 95 / 108 40% 2 12.12.2027 -
Gianluca Pugliese Güemes Ativo 106 / 114 40% 2 12.12.2027 -
Arsen Adamov Akhmat Grozny Ativo 127 / 127 40% 3 11.12.2027 -
Thiago López Almagro Ativo 98 / 104 40% 1 11.12.2027 -
Ángelo Lucena Carabobo Ativo 105 / 113 40% 1 09.12.2027 -
Giorgi Arabidze Torpedo Kutaisi Ativo 136 / 122 40% 1 09.12.2027 -
Daniil Kuznetsov Rubin Ativo 97 / 108 40% 1 08.12.2027 -
Ramiro Balbuena Nueva Chicago Ativo 104 / 95 40% 2 07.12.2027 -
Gastón Moreyra Almirante Brown Ativo 104 / 101 40% 4 07.12.2027 -
Kevin Méndez Dinamo Tbilisi Ativo 92 / 98 40% 2 06.12.2027 -
Edarlyn Reyes Arsenal Tula Ativo 120 / 114 40% 4 05.12.2027 -
Giorgi Beridze Dinamo Tbilisi Ativo 120 / 114 40% 4 05.12.2027 -
Francisco Salerno Defensores Unidos Ativo 92 / 115 40% 1 05.12.2027 -
Vyacheslav Grulev Nizhniy Novgorod Ativo 110 / 112 40% 5 04.12.2027 -
Adalberto Peñaranda Deportivo Tachira Ativo 121 / 116 40% 6 04.12.2027 -
Sharani Zuberu DAC Dunajska Streda Ativo 126 / 118 40% 1 04.12.2027 -
Brayan Alcócer Rubin Ativo 103 / 108 40% 1 04.12.2027 -
Brian Mansilla Akhmat Grozny Ativo 128 / 124 40% 5 02.12.2027 -
Tomás Fernández Aldosivi Ativo 122 / 118 40% 2 30.11.2027 -
Matías Viguet Maipú Ativo 98 / 105 40% 1 30.11.2027 -
Nicolás Sumavil Platense Ativo 129 / 128 40% 1 29.11.2027 -
Sebastián Cocimano Nueva Chicago Ativo 106 / 119 40% 3 28.11.2027 -
Agustín Gallo Tristán Suárez Ativo 129 / 122 40% 2 28.11.2027 -
Iván Tapia Barracas Central Ativo 102 / 121 40% 1 28.11.2027 -
Gonzalo Mottes Chacarita Juniors Ativo 126 / 105 40% 1 28.11.2027 -
Jhonatan Candia Barracas Central Ativo 114 / 123 40% 1 28.11.2027 -
Jacob Widell Zetterström Derby County Ativo 137 / 137 40% 1 27.11.2027 -
Enzo Trinidad Colegiales Ativo 123 / 125 40% 1 26.11.2027 -
Lautaro Núñez Alvarado Ativo 97 / 97 40% 1 26.11.2027 -
Facundo Heredia Patronato Ativo 111 / 98 40% 2 24.11.2027 -
Lucas Bruera Carabobo Ativo 125 / 136 40% 1 23.11.2027 -
Martin Sekulić Ural Ativo 122 / 112 40% 6 22.11.2027 -
Jakub Ojrzyński Orebro Ativo 98 / 106 40% 1 22.11.2027 -
Murphy Cooper Plymouth Argyle Ativo 136 / 119 40% 1 22.11.2027 -
Luca Martínez Dupuy Godoy Cruz Ativo 137 / 114 40% 3 21.11.2027 -
Kerfala Cissoko Rodina Ativo 99 / 107 40% 1 21.11.2027 -
Bogdan Ovsyannikov Orenburg Ativo 112 / 109 40% 1 21.11.2027 -
Luke Southwood Bristol Rovers Ativo 122 / 122 40% 1 21.11.2027 -
Jonathan Cañete Portuguesa Ativo 105 / 118 40% 3 20.11.2027 -
Eric Ramírez Llaneros Ativo 99 / 111 40% 1 20.11.2027 -
Juan Infante Atlético Tucumán Ativo 132 / 117 40% 1 20.11.2027 -
Matías Machado Racing Ativo 124 / 110 40% 1 20.11.2027 -
Vladislav Sarveli Nizhniy Novgorod Ativo 107 / 107 40% 9 19.11.2027 -
Facundo Krüger FK Senica Ativo 110 / 121 40% 1 19.11.2027 -
Tobías Leiva Estudiantes Ativo 118 / 105 40% 1 19.11.2027 -
Fernando Martínez Central Córdoba SdE Ativo 112 / 123 40% 1 19.11.2027 -
Juan Rocca Gimnasia y Tiro Ativo 123 / 104 40% 4 18.11.2027 -
Vicente Poggi Godoy Cruz Ativo 138 / 112 40% 1 18.11.2027 -
Georgy Melkadze Akhmat Grozny Ativo 109 / 109 40% 7 17.11.2027 -
Junior Paredes Trujillanos Ativo 93 / 108 40% 1 17.11.2027 -
Yuma Suzuki Urawa Reds Ativo 125 / 122 40% 1 16.11.2027 -
Misael Sosa Godoy Cruz Ativo 98 / 129 40% 1 15.11.2027 -
Tenton Yenne Baltika Ativo 111 / 112 40% 5 14.11.2027 -
Ramón González Almirante Brown Ativo 104 / 114 40% 1 14.11.2027 -
Lautaro Disanto Defensores Unidos Ativo 103 / 100 40% 1 14.11.2027 -
Juan Pablo Barinaga Patronato Ativo 114 / 115 40% 2 13.11.2027 -
Rodrigo Bogarín Barracas Central Ativo 103 / 130 40% 1 11.11.2027 -
Erickson Gallardo Zamora Ativo 118 / 98 40% 2 10.11.2027 -
Alexandr Lomovitskiy Torpedo-BelAZ Ativo 103 / 111 40% 3 08.11.2027 -
Ariel Schuartzman Torpedo Kutaisi Ativo 109 / 107 40% 2 08.11.2027 -
Alan Bonansea Colón Ativo 116 / 115 40% 3 08.11.2027 -
Genaro Rossi San Martín SJ Ativo 108 / 111 40% 1 08.11.2027 -
Facundo Ardiles Estudiantes Ativo 119 / 116 40% 1 04.11.2027 -
Brian Calderara Chacarita Juniors Ativo 127 / 112 40% 1 04.11.2027 -
Enzo Avaro Odd Ativo 97 / 112 40% 2 03.11.2027 -
Enzo Martínez Almagro Ativo 114 / 109 40% 2 31.10.2027 -
Luca Franco Arsenal Ativo 90 / 98 40% 2 30.10.2027 -
Lucas Carrizo Plaza Colonia Ativo 117 / 106 40% 2 28.10.2027 -
Jonás Acevedo Instituto Ativo 117 / 114 40% 2 27.10.2027 -
Gamid Agalarov Dinamo Makhachkala Ativo 121 / 105 40% 3 26.10.2027 -
Santiago Sala Güemes Ativo 94 / 112 40% 4 24.10.2027 -
Richard Figueroa Deportivo Lara Ativo 93 / 98 40% 3 22.10.2027 -
Marco Miori Alvarado Ativo 131 / 120 40% 1 21.10.2027 -
Rauno Sappinen Flora Ativo 110 / 110 40% 1 20.10.2027 -
Juan Sebastián Herrera Deportivo La Guaira Ativo 98 / 106 40% 4 19.10.2027 -
Gonzalo Asis Almagro Ativo 128 / 118 40% 2 19.10.2027 -
Augusto Berrondo Tristán Suárez Ativo 129 / 120 40% 2 19.10.2027 -
Santiago Apa All Boys Ativo 98 / 103 40% 1 19.10.2027 -
Alejo Dramisino Atlanta Ativo 107 / 112 40% 1 18.10.2027 -
Tomás Ferreyra Defensores Unidos Ativo 107 / 110 40% 2 16.10.2027 -
Nicolás Cordero Aldosivi Ativo 111 / 111 40% 1 11.10.2027 -
Radivoj Bosić Vitebsk Ativo 101 / 105 40% 1 10.10.2027 -
Federico Bisanz Atlanta Ativo 122 / 107 40% 1 10.10.2027 -
Yegor Kortsov Dinamo Brest Ativo 112 / 109 40% 1 07.10.2027 -
Javier Martínez Almirante Brown Ativo 91 / 97 40% 1 07.10.2027 -
Irakli Kvilitaia Tskhinvali Ativo 127 / 100 40% 1 05.10.2027 -
Renzo Reynaga Patronato Ativo 122 / 120 40% 1 04.10.2027 -
Iñaki Larthirigoyen San Telmo Ativo 122 / 112 40% 1 17.09.2027 -
Brahian Cuello Unión de Santa Fe Ativo 106 / 106 40% 1 17.09.2027 -
Julián Cosi Madryn Ativo 123 / 104 40% 1 14.09.2027 -
Luis Olivera Defensores Unidos Ativo 98 / 115 40% 1 08.09.2027 -
Jesús Vargas Metropolitanos Ativo 122 / 109 40% 1 07.09.2027 -
Sebastián Jaurena San Martín SJ Ativo 109 / 117 40% 1 07.09.2027 -
Richard Celis Zamora Ativo 116 / 116 40% 1 06.09.2027 -
Gustavo Viera Cerro Largo Ativo 118 / 103 40% 1 02.09.2027 -
Brian Orosco Godoy Cruz Ativo 133 / 108 40% 1 02.09.2027 -
Duvan Rangel La Equidad Ativo 122 / 124 40% 1 25.08.2027 -
Diogo Guzmán Montevideo City Torque Ativo 120 / 111 40% 1 18.08.2027 -
Luca Vignali Virtus Entella Ativo 131 / 121 40% 1 10.08.2027 -
Kane Wilson Milton Keynes Dons Ativo 111 / 120 40% 1 09.08.2027 -
Caylan Vickers Burton Albion Ativo 117 / 108 40% 1 09.08.2027 -
Kyle John Port Vale Ativo 117 / 118 40% 2 07.08.2027 -
Sam Mather Bromley Ativo 110 / 115 40% 1 07.08.2027 -
Malik Mothersille Stockport County Ativo 107 / 122 40% 1 06.08.2027 -
Kelly Saravanan Salford City Ativo 112 / 111 40% 1 06.08.2027 -
Jack Senior Crawley Town Ativo 100 / 89 40% 1 04.08.2027 -
Connor Ogilvie Bristol Rovers Ativo 110 / 108 40% 1 30.07.2027 -
Darragh Burns Grimsby Town Ativo 96 / 95 40% 1 28.07.2027 -
Josh Dacres-Cogley Stockport County Ativo 124 / 120 40% 1 28.07.2027 -
Shayne Lavery Cambridge United Ativo 89 / 116 40% 4 27.07.2027 -
George Byers Port Vale Ativo 131 / 127 40% 1 27.07.2027 -
Velemseni Ndwandwe Golden Arrows Ativo 93 / 112 40% 1 26.07.2027 -
Ben Garrity Port Vale Ativo 116 / 106 40% 1 25.07.2027 -
Mattia Vitale Salernitana Ativo 132 / 118 40% 1 19.07.2027 -
Kees de Boer Salernitana Ativo 107 / 105 40% 1 18.07.2027 -
Jacopo Desogus AlbinoLeffe Ativo 124 / 119 40% 1 17.07.2027 -
Simone Potop AlbinoLeffe Ativo 108 / 92 40% 1 17.07.2027 -
Corrado Riviera Renate Ativo 89 / 116 40% 1 16.07.2027 -
Giacomo Zecca Torres Ativo 96 / 114 40% 1 15.07.2027 -
Martin Kramarič Krylya Sovetov Ativo 106 / 119 40% 1 13.07.2027 -
Alexandr Ektov Nizhniy Novgorod Ativo 107 / 110 40% 1 13.07.2027 -
Fortune Bassey Djoliba Ativo 106 / 93 40% 1 23.06.2027 -
Amine Benchaib Kauno Zalgiris Ativo 93 / 109 44% 1 03.06.2027 -
Goga Kobiashvili Veres Negociando 92 / 92 66% 1 01.06.2027 Aprovar
Shota Shekiladze Akhmat Grozny Ativo 110 / 110 66% 1 01.06.2027 Aprovar
Mattia Iori Lumezzane Ativo 111 / 99 40% 1 31.05.2027 -
Silvio Merkaj Vicenza Ativo 132 / 119 40% 1 29.05.2027 -
Francesco Petito Dolomiti Bellunesi Ativo 81 / 92 40% 1 29.05.2027 -
Gilson Benchimol Akron Ativo 108 / 115 40% 7 25.05.2027 -
Brayan León Mamelodi Sundowns Ativo 136 / 103 40% 4 25.05.2027 -
Chinedu Geoffrey Krylya Sovetov Ativo 119 / 114 40% 2 25.05.2027 -
Mikhail Ignatov Sochi Ativo 117 / 112 40% 5 22.05.2027 -
Simone Mazzocchi Cosenza Ativo 125 / 114 40% 1 22.05.2027 -
Hany Mukhtar Spezia Ativo 143 / 123 40% 1 22.05.2027 -
John Yeboah Venezia Ativo 99 / 130 40% 1 22.05.2027 -
Ettore Gliozzi Mantova Ativo 113 / 130 40% 1 19.05.2027 -
Artem Maximenko Nizhniy Novgorod Ativo 121 / 109 40% 5 18.05.2027 -
Mattia Bortolussi Padova Ativo 131 / 125 40% 1 17.05.2027 -
Ruslan Apekov Torpedo Moscow Ativo 114 / 107 40% 3 16.05.2027 -
Marco Tumminello Benevento Ativo 119 / 105 40% 1 16.05.2027 -
Vladimir Khubulov Dinamo Makhachkala Ativo 105 / 103 40% 4 15.05.2027 -
Amur Kalmykov Spartak Kostroma Ativo 121 / 99 40% 2 15.05.2027 -
Dmitry Tsypchenko Torpedo Moscow Ativo 96 / 98 40% 6 13.05.2027 -
Emanuele Schimmenti Potenza Ativo 125 / 110 40% 1 13.05.2027 -
Maksim Samorodov Akhmat Grozny Ativo 133 / 122 40% 6 11.05.2027 -
Mandla Mahlangu Ajax Cape Town Ativo 88 / 100 40% 5 11.05.2027 -
Evidence Makgopa Orlando Pirates Ativo 137 / 102 40% 5 11.05.2027 -
Slobodan Tedić Akron Ativo 104 / 108 40% 6 09.05.2027 -
Etiosa Ighodaro Kaizer Chiefs Ativo 91 / 115 40% 4 06.05.2027 -
Migran Ageyan Ufa Ativo 107 / 97 40% 2 03.05.2027 -
David Davidyan Rotor Ativo 87 / 107 40% 1 01.05.2027 -
Andrey Okladnikov Yenisey Ativo 90 / 83 40% 1 27.04.2027 -
Ekain Orobengoa Real Sociedad Ativo 87 / 114 40% 1 25.04.2027 -
Lewis Morgan SuperSport United Ativo 136 / 134 40% 4 22.04.2027 -
Everton Bala Levski Ativo 128 / 129 40% 2 21.04.2027 -
Malick Traoré Onze Createurs Ativo 100 / 100 40% 2 19.04.2027 -
Kamran Aliev SKA Khabarovsk Ativo 109 / 106 40% 2 16.04.2027 -
Vladislav Yakovlev Volga Ativo 97 / 93 40% 2 15.04.2027 -
Amar Rahmanović Krylya Sovetov Ativo 106 / 106 40% 2 14.04.2027 -
Surkhaikhan Abdullaev KAMAZ Ativo 86 / 99 40% 1 14.04.2027 -
Dmitry Kamenschikov Arsenal Tula Ativo 101 / 95 40% 4 08.04.2027 -
Danil Karpov KAMAZ Ativo 97 / 89 40% 3 06.04.2027 -
Alexandr Khokhlachev Rotor Ativo 108 / 94 40% 2 02.04.2027 -
Rashid Magomedov Neftekhimik Ativo 107 / 95 40% 1 02.04.2027 -
Jacobo Alcalde SKA Khabarovsk Ativo 96 / 97 40% 2 28.03.2027 -
Bertrand Fourrier Ural Ativo 113 / 101 40% 2 28.03.2027 -
Aaron Drinan Swindon Town Ativo 122 / 101 40% 1 25.03.2027 -
Ali Youssef Apollon Ativo 134 / 113 40% 1 24.03.2027 -
Juan Cejas Ethnikos Achnas Ativo 112 / 106 40% 1 24.03.2027 -
Jerome Karelse Golden Arrows Ativo 81 / 94 40% 1 23.03.2027 -
Nikita Simdyankin KDV Tomsk Ativo 91 / 78 40% 1 21.03.2027 -
Daniil Agureev Amkar Ativo 81 / 80 40% 1 15.03.2027 -
Kirill Bogdanets Volna Ativo 91 / 94 40% 1 07.03.2027 -
Alexandr Dolgov Amkar Ativo 94 / 92 40% 2 06.03.2027 -
Pedro Marques Apollon Ativo 105 / 116 40% 2 02.03.2027 -
Alexandr Saplinov Volga Ativo 92 / 99 40% 2 28.02.2027 -
Daniil Kondrakov KDV Tomsk Ativo 79 / 84 40% 1 20.02.2027 -
Said Aliev Rotor Ativo 88 / 89 40% 1 14.02.2027 -
Leon Sabua Fakel Ativo 108 / 94 40% 1 10.02.2027 -
Chinonso Offor Baltika Ativo 96 / 105 40% 1 08.02.2027 -
Aleksej Golijanin Sokol Ativo 101 / 95 40% 1 07.02.2027 -
Alexandr Yushin Torpedo Moscow Ativo 100 / 107 40% 1 05.02.2027 -
Temirkan Sundukov Dinamo Makhachkala Ativo 104 / 112 40% 1 28.01.2027 -
Ilja Agapov Ufa Ativo 107 / 118 40% 1 28.01.2027 -
Eddy Ozobic Inter Ativo 122 / 120 40% 1 25.01.2027 -
Tomas Švedkauskas Kauno Zalgiris Ativo 84 / 97 41% 1 18.01.2027 -
Anton Tolordava Kauno Zalgiris Ativo 94 / 102 41% 1 05.01.2027 -
Stefan Kovač Baltika Ativo 117 / 117 40% 2 02.01.2027 -
Kristijan Bistrović Akron Ativo 112 / 114 40% 2 30.12.2026 -
Stefan Lončar Akron Ativo 101 / 116 40% 2 28.12.2026 -
Ivan Komarov Rostov Ativo 122 / 107 40% 2 27.12.2026 -
Ugochukwu Iwu Rubin Ativo 122 / 115 40% 1 27.12.2026 -
Léo Cordeiro Ural Ativo 107 / 116 40% 2 25.12.2026 -
Robert Mejía Orenburg Ativo 123 / 118 40% 1 25.12.2026 -
Bojan Roganović Torpedo Moscow Ativo 95 / 96 40% 1 24.12.2026 -
Artem Simonyan Rotor Ativo 92 / 103 40% 1 17.12.2026 -
Houssem Mrezigue Dinamo Makhachkala Ativo 126 / 120 40% 2 16.12.2026 -
Artem Makarchuk Sochi Ativo 115 / 111 40% 2 15.12.2026 -
Maxime Sivis Orenburg Ativo 119 / 119 40% 1 15.12.2026 -
Vyacheslav Yakimov Fakel Ativo 114 / 103 40% 2 13.12.2026 -
Mario Ćurić Torpedo Moscow Ativo 102 / 102 40% 1 13.12.2026 -
Đorđe Pantelić Spartak Kostroma Ativo 93 / 101 40% 2 12.12.2026 -
Roman Yezhov Sochi Ativo 100 / 101 40% 2 12.12.2026 -
Guljigit Alykulov Dinamo Minsk Ativo 99 / 113 40% 1 11.12.2026 -
Ilja Vakhania Krasnodar Ativo 108 / 112 40% 1 11.12.2026 -
Miroslav Bogosavac Akhmat Grozny Ativo 133 / 113 40% 1 10.12.2026 -
Andrea Chukanov Yenisey Ativo 89 / 106 40% 1 07.12.2026 -
Eldar Ćivić Baltika Ativo 132 / 124 40% 2 02.12.2026 -
Nikolay Giorgobiani Fakel Ativo 124 / 106 40% 1 30.11.2026 -
Lechi Sadulaev Akhmat Grozny Ativo 118 / 123 40% 1 21.11.2026 -
Igor Dmitriev Spartak Moscow Ativo 123 / 127 40% 1 20.11.2026 -
Kevin Pina Krasnodar Ativo 122 / 120 40% 1 17.11.2026 -
Valdas Paulauskas Kauno Zalgiris Ativo 85 / 95 41% 1 24.08.2026 -
Lukas Simkus Stumbras Ativo 98 / 110 41% 1 17.08.2026 -